Total_Precipitation_Accumulation
0.01 0.05 0.11 0.20 0.15 0.11 0.10 0.09 0.07 0.06 0.05 0.07 0.09 0.11 0.12 0.12 0.12 0.12 0.12 0.13 0.14 0.15 0.14 0.14 0.13 0.12 0.11 0.11 0.13 0.13 0.16 0.22 0.24 0.22 0.18 0.15 0.16 0.15 0.19 0.20 0.15 0.18 0.27
0.02 0.06 0.10 0.13 0.10 0.08 0.06 0.05 0.05 0.04 0.04 0.05 0.07 0.07 0.07 0.09 0.11 0.12 0.12 0.12 0.13 0.15 0.18 0.19 0.16 0.13 0.12 0.11 0.11 0.10 0.11 0.15 0.19 0.22 0.18 0.11 0.16 0.17 0.16 0.20 0.17 0.31 0.37
0.01 0.04 0.05 0.07 0.07 0.05 0.05 0.04 0.04 0.03 0.03 0.03 0.05 0.05 0.05 0.06 0.08 0.10 0.11 0.12 0.12 0.12 0.13 0.15 0.16 0.12 0.10 0.10 0.10 0.09 0.11 0.11 0.12 0.15 0.15 0.09 0.18 0.25 0.23 0.23 0.17 0.31 0.36
0.01 0.04 0.03 0.03 0.04 0.05 0.04 0.04 0.03 0.03 0.03 0.03 0.03 0.04 0.04 0.05 0.06 0.07 0.08 0.08 0.09 0.10 0.10 0.11 0.10 0.10 0.09 0.07 0.08 0.08 0.10 0.11 0.09 0.08 0.03 0.04 0.21 0.27 0.28 0.24 0.19 0.25 0.32
0.02 0.03 0.03 0.03 0.03 0.02 0.02 0.02 0.02 0.02 0.03 0.03 0.03 0.03 0.03 0.04 0.05 0.06 0.06 0.06 0.05 0.06 0.07 0.08 0.09 0.11 0.10 0.09 0.08 0.10 0.11 0.10 0.08 0.04 0.01 0.03 0.14 0.21 0.21 0.24 0.22 0.26 0.30
0.00 0.01 0.01 0.02 0.01 0.00 0.00 0.00 0.00 0.01 0.01 0.02 0.02 0.03 0.03 0.04 0.04 0.04 0.04 0.04 0.04 0.04 0.05 0.06 0.08 0.11 0.11 0.11 0.11 0.16 0.19 0.16 0.08 0.02 0.01 0.02 0.06 0.12 0.19 0.29 0.29 0.27 0.23
0.00 0.00 0.00 0.00 0.00 0.00 0.00 0.00 0.00 0.00 0.00 0.01 0.01 0.02 0.02 0.04 0.05 0.05 0.03 0.03 0.04 0.04 0.05 0.06 0.07 0.09 0.12 0.13 0.15 0.20 0.27 0.22 0.10 0.12 0.08 0.05 0.05 0.08 0.14 0.27 0.31 0.28 0.28
0.00 0.00 0.00 0.00 0.00 0.00 0.00 0.00 0.00 0.00 0.00 0.00 0.00 0.00 0.00 0.01 0.03 0.04 0.04 0.05 0.06 0.05 0.06 0.05 0.05 0.06 0.08 0.12 0.15 0.18 0.23 0.16 0.13 0.21 0.23 0.18 0.13 0.14 0.18 0.26 0.31 0.32 0.34
0.00 0.00 0.00 0.00 0.00 0.00 0.00 0.00 0.00 0.00 0.00 0.00 0.00 0.00 0.00 0.00 0.00 0.01 0.02 0.03 0.05 0.04 0.06 0.05 0.04 0.04 0.05 0.07 0.10 0.16 0.19 0.15 0.21 0.35 0.30 0.32 0.23 0.27 0.29 0.28 0.28 0.33 0.36
0.00 0.00 0.00 0.00 0.00 0.00 0.00 0.00 0.00 0.00 0.00 0.00 0.00 0.00 0.00 0.00 0.00 0.01 0.01 0.02 0.03 0.04 0.05 0.05 0.05 0.05 0.05 0.05 0.06 0.08 0.12 0.11 0.15 0.25 0.36 0.30 0.26 0.37 0.45 0.39 0.32 0.32 0.37
0.00 0.00 0.00 0.00 0.00 0.00 0.00 0.00 0.00 0.00 0.00 0.00 0.00 0.00 0.00 0.00 0.00 0.00 0.01 0.00 0.01 0.02 0.03 0.03 0.05 0.05 0.04 0.02 0.02 0.04 0.04 0.03 0.11 0.22 0.29 0.24 0.29 0.43 0.54 0.50 0.47 0.40 0.39
0.00 0.00 0.00 0.00 0.00 0.00 0.00 0.00 0.00 0.00 0.00 0.00 0.00 0.00 0.00 0.00 0.00 0.00 0.00 0.01 0.02 0.03 0.04 0.05 0.05 0.04 0.04 0.02 0.02 0.06 0.02 0.00 0.01 0.05 0.10 0.13 0.20 0.31 0.49 0.57 0.58 0.55 0.50
0.00 0.00 0.00 0.00 0.00 0.00 0.00 0.00 0.00 0.00 0.00 0.00 0.00 0.00 0.00 0.00 0.00 0.00 0.00 0.00 0.00 0.01 0.03 0.07 0.10 0.11 0.14 0.13 0.10 0.12 0.06 0.04 0.03 0.02 0.02 0.07 0.09 0.13 0.24 0.40 0.58 0.64 0.64
0.00 0.00 0.00 0.00 0.00 0.00 0.00 0.00 0.00 0.00 0.00 0.00 0.00 0.00 0.00 0.00 0.00 0.00 0.00 0.00 0.00 0.00 0.00 0.02 0.07 0.14 0.19 0.20 0.15 0.11 0.12 0.12 0.09 0.07 0.04 0.07 0.08 0.08 0.13 0.23 0.40 0.57 0.67
0.00 0.00 0.00 0.00 0.00 0.00 0.00 0.00 0.00 0.00 0.00 0.00 0.00 0.00 0.00 0.00 0.00 0.00 0.00 0.00 0.00 0.00 0.00 0.00 0.01 0.03 0.07 0.12 0.14 0.12 0.12 0.11 0.12 0.14 0.12 0.12 0.10 0.08 0.09 0.15 0.25 0.42 0.58
0.00 0.00 0.00 0.00 0.00 0.00 0.00 0.00 0.00 0.00 0.00 0.00 0.00 0.00 0.00 0.00 0.00 0.00 0.00 0.00 0.00 0.00 0.00 0.00 0.00 0.00 0.00 0.01 0.02 0.05 0.09 0.12 0.15 0.16 0.14 0.13 0.12 0.09 0.09 0.11 0.17 0.30 0.49
0.00 0.00 0.00 0.00 0.00 0.00 0.00 0.00 0.00 0.00 0.00 0.00 0.00 0.00 0.00 0.00 0.00 0.00 0.00 0.00 0.00 0.00 0.00 0.00 0.00 0.00 0.00 0.00 0.00 0.00 0.01 0.03 0.07 0.12 0.12 0.14 0.16 0.13 0.11 0.12 0.14 0.19 0.32
0.00 0.00 0.00 0.00 0.00 0.00 0.00 0.00 0.00 0.00 0.00 0.00 0.00 0.00 0.00 0.00 0.00 0.00 0.00 0.00 0.00 0.00 0.00 0.00 0.00 0.00 0.00 0.00 0.00 0.00 0.00 0.00 0.00 0.02 0.04 0.09 0.14 0.17 0.15 0.15 0.16 0.17 0.21
0.00 0.00 0.00 0.00 0.00 0.00 0.00 0.00 0.00 0.00 0.00 0.00 0.00 0.00 0.00 0.00 0.00 0.00 0.00 0.00 0.00 0.00 0.00 0.00 0.00 0.00 0.00 0.00 0.00 0.00 0.00 0.00 0.00 0.00 0.00 0.02 0.05 0.11 0.15 0.16 0.16 0.16 0.16
0.00 0.00 0.00 0.00 0.00 0.00 0.00 0.00 0.00 0.00 0.00 0.00 0.00 0.00 0.00 0.00 0.00 0.00 0.00 0.00 0.00 0.00 0.00 0.00 0.00 0.00 0.00 0.00 0.00 0.00 0.00 0.00 0.00 0.00 0.00 0.00 0.01 0.05 0.09 0.12 0.14 0.15 0.15
0.00 0.00 0.00 0.00 0.00 0.00 0.00 0.00 0.00 0.00 0.00 0.00 0.00 0.00 0.00 0.00 0.00 0.00 0.00 0.00 0.00 0.01 0.00 0.00 0.00 0.00 0.01 0.00 0.00 0.00 0.00 0.00 0.00 0.00 0.00 0.00 0.00 0.02 0.06 0.10 0.13 0.14 0.14
0.00 0.00 0.00 0.00 0.00 0.00 0.00 0.00 0.00 0.00 0.00 0.00 0.00 0.00 0.00 0.00 0.00 0.00 0.00 0.01 0.01 0.01 0.00 0.00 0.01 0.02 0.02 0.01 0.03 0.06 0.04 0.01 0.00 0.00 0.00 0.00 0.00 0.00 0.02 0.06 0.12 0.13 0.12
0.00 0.00 0.00 0.00 0.00 0.00 0.00 0.00 0.00 0.00 0.00 0.00 0.00 0.00 0.00 0.00 0.00 0.00 0.00 0.01 0.02 0.01 0.01 0.01 0.02 0.03 0.04 0.02 0.03 0.14 0.23 0.15 0.04 0.00 0.00 0.00 0.00 0.00 0.00 0.02 0.06 0.11 0.14
0.00 0.00 0.00 0.00 0.00 0.00 0.00 0.00 0.00 0.00 0.00 0.00 0.00 0.00 0.00 0.00 0.00 0.00 0.01 0.01 0.01 0.01 0.01 0.02 0.02 0.04 0.07 0.08 0.04 0.06 0.14 0.19 0.24 0.12 0.02 0.03 0.03 0.03 0.02 0.02 0.03 0.07 0.13
0.00 0.00 0.00 0.00 0.00 0.00 0.00 0.00 0.00 0.00 0.00 0.00 0.00 0.00 0.00 0.00 0.00 0.00 0.01 0.01 0.01 0.01 0.01 0.02 0.03 0.04 0.08 0.11 0.11 0.10 0.08 0.07 0.12 0.22 0.10 0.04 0.07 0.08 0.07 0.05 0.06 0.09 0.12
0.00 0.00 0.00 0.00 0.00 0.00 0.00 0.00 0.00 0.00 0.00 0.00 0.00 0.00 0.00 0.00 0.00 0.00 0.00 0.00 0.01 0.01 0.02 0.03 0.04 0.05 0.06 0.07 0.10 0.12 0.16 0.18 0.13 0.18 0.18 0.06 0.03 0.04 0.06 0.08 0.08 0.12 0.15